Location: Ellerstadt
(49.4644°N, 8.2615°E)
Time: 19:36:26
(UTC+00:00)

Vanguard 1 - Pass Details

Date: 21 June 2021
Orbit: 651 x 3832 km, 34.2° (Epoch: 27 July)

Event Time Altitude Azimuth Distance (km) Brightness Sun altitude
Rises 03:01:45 0° 275° (W) 6,642 13.9 -3.1°
Reaches altitude 10° 03:10:15 10° 252° (WSW) 4,762 13.0 -2.1°
Maximum altitude 03:14:32 12° 232° (SW) 4,079 12.6 -1.6°
Drops below altitude 10° 03:18:09 10° 211° (SSW) 3,836 12.5 -1.1°
Sets 03:23:12 0° 182° (S) 4,194 12.9 -0.5°
